星链-1317 (STARLINK-1317 )

导读 | 豆包AI

STARLINK-1317是美国太空探索技术公司Starlink卫星互联网星座的一员,于2020年3月18日发射升空。作为星链低轨星座组网卫星,它运行在近地轨道,承担为全球提供高速互联网接入服务的任务,是星链星座搭建全球卫星通信网络进程中重要的组网节点,服务于全球宽带互联网覆盖。

Basic Information
目录编号:
45365
目录名称:
STARLINK-1317
国际标识:
2020-019F
轨道中心:
EARTH
卫星名称:
星链-1317
卫星全名:
星链-1317 (STARLINK-1317 )
卫星状态:
已陨落 最后检测时间 2023-11-14
发射日期:
2020-03-18 UTC
国别 :
美国 (US)
星等 :
--
Orbit Information
数据来源 国际轨道数据
星历时间: 2023-11-15T00:37:29+0800
轨道信息已过期897天
半长轴: 6530.869km
偏心率: 0.0002755
轨道倾角: 52.982°
近地点辐角 156.045°
升交点赤经 293.637°
平近点角 352.888°
近地点: 150.934km
远地点: 154.534km
周期: 87.542分钟
每日圈数: 16.449259
Detailed Information
固有亮度:
5
最大亮度:
2.5
卫星平台:
Starlink V1.0
覆盖范围:
全球
运营商:
太空探索技术公司
运营商所在国:
美国
制造商(研发单位):
太空探索技术公司
制造商所在国:
美国
使用方式:
暂无
Satellite Introduction
星链(Starlink)计划是由太空探索技术公司(SpaceX)提出的一个巨型低轨卫星互联网星座项目,计划在2019年至2024年间在太空搭建由约1.2万颗卫星组成的“星链”网络,其中1584颗将部署在地球上空550千米处的近地轨道,并从2020年开始工作。该卫星已陨落。